Weather History for Daytona Beach, FL

Change the Weather History Date:

Friday, May 24, 2013

  Actual Average Record
Temperature  
Mean Temperature 79 °F 77 °F  
Max Temperature 89 °F 86 °F 96 °F (1953)
Min Temperature 68 °F 68 °F 53 °F (1941)
Degree Days  
Heating Degree Days 0 0  
Month to date heating degree days 0 0  
Since 1 July heating degree days 694 807  
Cooling Degree Days 14 12  
Month to date cooling degree days 202 225  
Year to date cooling degree days 570 512  
Growing Degree Days 28 (Base 50)    
Moisture  
Dew Point 67 °F    
Average Humidity 69    
Maximum Humidity 93    
Minimum Humidity 45    
Precipitation  
Precipitation 0.00 in 0.13 in 1.32 in (1943)
Month to date precipitation 9.02 2.09  
Year to date precipitation 14.81 14.03  
Sea Level Pressure  
Sea Level Pressure 30.03 in    
Wind  
Wind Speed 6 mph (SW)    
Max Wind Speed 14 mph    
Max Gust Speed 17 mph    
Visibility 8 miles    
Events Fog    
T = Trace of Precipitation, MM = Missing Value Source: NWS Daily Summary

Daily Weather History Graph

Daily Weather History Graph

Search for Another Location

Airport:

Trip Planner

Search our weather history database for the weather conditions in past years. The results will help you decide how hot, cold, wet, or windy it might be!

Date:

Astronomy

May. 24, 2013 Rise Set
Actual Time 6:27 AM EDT 8:14 PM EDT
Civil Twilight 6:01 AM EDT 8:41 PM EDT
Nautical Twilight 5:29 AM EDT 9:12 PM EDT
Astronomical Twilight 4:56 AM EDT 9:46 PM EDT
Moon 7:57 PM EDT (5/24) 5:54 AM EDT (5/24)
Length of Visible Light 14h 39m
Length of Day
13h 46m
Full, 100% of the Moon is Illuminated
May 24
Full
May 25
Full
May 31
Last Quarter
Jun 8
New
Jun 16
First Quarter

Hourly Weather History & Observations

Time (EDT) Temp. Heat Index Dew Point Humidity Pressure Visibility Wind Dir Wind Speed Gust Speed Precip Events Conditions
12:53 AM 69.1 °F - 64.0 °F 84% 30.01 in 10.0 mi SW 4.6 mph - N/A   Partly Cloudy
1:53 AM 69.1 °F - 64.9 °F 87% 29.99 in 10.0 mi SW 3.5 mph - N/A   Partly Cloudy
2:53 AM 69.1 °F - 66.0 °F 90% 29.98 in 10.0 mi SSW 3.5 mph - N/A   Partly Cloudy
3:53 AM 69.1 °F - 66.0 °F 90% 29.97 in 8.0 mi SSW 4.6 mph - N/A   Partly Cloudy
4:53 AM 69.1 °F - 66.0 °F 90% 29.97 in 6.0 mi SW 3.5 mph - N/A   Partly Cloudy
5:53 AM 68.0 °F - 66.0 °F 93% 29.99 in 6.0 mi SSW 4.6 mph - N/A   Partly Cloudy
6:36 AM 68.0 °F - 66.2 °F 94% 30.00 in 2.0 mi SW 4.6 mph - N/A Fog Patches of Fog
6:48 AM 69.8 °F - 66.2 °F 88% 30.00 in 0.5 mi SW 4.6 mph - N/A Fog Patches of Fog
6:49 AM 69.1 °F - 66.9 °F 93% 30.01 in 0.5 mi SW 4.6 mph - N/A Fog Patches of Fog
6:53 AM 69.8 °F - 66.2 °F 88% 30.01 in 0.2 mi SW 3.5 mph - N/A Fog Fog
7:53 AM 71.1 °F - 70.0 °F 96% 30.02 in 0.2 mi West 5.8 mph - N/A Fog Fog
8:13 AM 71.6 °F - 71.6 °F 100% 30.02 in 2.0 mi WSW 4.6 mph - N/A   Partly Cloudy
8:17 AM 73.4 °F - 71.6 °F 94% 30.02 in 3.0 mi WSW 4.6 mph - N/A   Partly Cloudy
8:53 AM 73.9 °F - 72.0 °F 93% 30.03 in 10.0 mi West 3.5 mph - N/A   Scattered Clouds
9:53 AM 81.0 °F 84.4 °F 70.0 °F 69% 30.04 in 10.0 mi NW 8.1 mph - N/A   Partly Cloudy
10:53 AM 84.9 °F 87.6 °F 66.9 °F 55% 30.05 in 10.0 mi WNW 8.1 mph - N/A   Partly Cloudy
11:53 AM 88.0 °F 90.7 °F 66.9 °F 49% 30.06 in 10.0 mi North 8.1 mph - N/A   Scattered Clouds
12:53 PM 86.0 °F 86.8 °F 63.0 °F 46% 30.05 in 10.0 mi NE 12.7 mph - N/A   Scattered Clouds
1:53 PM 87.1 °F 88.3 °F 64.0 °F 46% 30.04 in 10.0 mi NE 10.4 mph - N/A   Scattered Clouds
2:53 PM 84.0 °F 84.9 °F 63.0 °F 49% 30.04 in 10.0 mi NE 10.4 mph - N/A   Mostly Cloudy
3:53 PM 82.9 °F 84.4 °F 64.0 °F 53% 30.03 in 10.0 mi ENE 9.2 mph - N/A   Scattered Clouds
4:53 PM 84.0 °F 85.8 °F 64.9 °F 53% 30.02 in 10.0 mi ENE 6.9 mph - N/A   Partly Cloudy
5:53 PM 84.0 °F 85.8 °F 64.9 °F 53% 30.02 in 10.0 mi ENE 6.9 mph - N/A   Scattered Clouds
6:53 PM 82.0 °F 84.1 °F 66.0 °F 58% 30.03 in 10.0 mi ENE 8.1 mph - N/A   Scattered Clouds
7:53 PM 79.0 °F - 66.9 °F 66% 30.05 in 10.0 mi ENE 11.5 mph - N/A   Scattered Clouds
8:53 PM 77.0 °F - 66.9 °F 71% 30.06 in 10.0 mi ENE 6.9 mph - N/A   Scattered Clouds
9:53 PM 75.0 °F - 68.0 °F 79% 30.08 in 10.0 mi ENE 3.5 mph - N/A   Scattered Clouds
10:53 PM 75.0 °F - 66.9 °F 76% 30.10 in 10.0 mi Calm Calm - N/A   Partly Cloudy
11:53 PM 73.9 °F - 66.0 °F 76% 30.12 in 10.0 mi East 3.5 mph - N/A   Clear